Flag for Germany Weather past 2 weeks in Greven, North Rhine-Westphalia, Germany

Now
36 °F

Partly sunny.


Feels Like: 30 °F
Forecast: 37 / 43 °F
Wind: 7 mph from West

Location: Muenster / Osnabrueck

Current Time: Jan 27, 2015 at 9:50:07 AM

Latest Report: Jan 27, 2015 at 9:20 AM


Visibility: N/A

Pressure: 30.12 "Hg

Humidity: 100%

Dew point: 36 °F

Location of GrevenLocation

Historic Weather in Greven — Graph

°F

Greven temperature yesterday

Maximum temperature yesterday: 43 °F (at 5:50 PM)
Minimum temperature yesterday: 36 °F (at 12:20 AM)
Average temperature yesterday: 39 °F

Past Weeks' High & Low Weather Summary

 TemperatureHumidityPressure
High52 °F (Jan 13, 6:20 AM)100% (Jan 17, 2:50 AM)30.36 "Hg (Jan 17, 2:50 AM)
Low23 °F (Jan 21, 1:50 AM)65% (Jan 21, 1:50 PM)29.39 "Hg (Jan 15, 3:50 PM)
Average37 °F88%29.93 "Hg
* Reported Jan 12 8:20 AM — Jan 27 8:50 AM, Greven, Weather by CustomWeather, © 2014

Note: Actual official high and low records may vary slightly from our data, if they occured in-between our weather recording intervals... More about our weather records

Advertising

Greven weather history for previous 24 hours

 ConditionsComfort  
Time TempWeatherWind HumidityBarometerVisibility
8:50 AM
Jan 27
36 °FPartly sunny.7 mph93%30.12 "HgN/A
8:20 AM36 °FPartly sunny.8 mph100%30.12 "HgN/A
7:50 AM36 °FPassing clouds.8 mph93%30.09 "HgN/A
7:20 AM36 °FPassing clouds.9 mph93%30.09 "HgN/A
6:50 AM36 °FPassing clouds.9 mph93%30.09 "HgN/A
6:20 AM37 °FPassing clouds.10 mph87%30.09 "HgN/A
5:50 AM36 °FPassing clouds.8 mph93%30.09 "HgN/A
5:20 AM36 °FSprinkles. Passing clouds.10 mph93%30.09 "HgN/A
4:50 AM37 °FPassing clouds.9 mph93%30.09 "HgN/A
4:20 AM37 °FSprinkles. Passing clouds.9 mph93%30.09 "HgN/A
3:50 AM36 °FPassing clouds.10 mph93%30.09 "HgN/A
3:20 AM36 °FPassing clouds.8 mph93%30.09 "HgN/A
2:50 AM37 °FPassing clouds.9 mph87%30.09 "HgN/A
2:20 AM37 °FPassing clouds.9 mph93%30.07 "HgN/A
1:50 AM36 °FPassing clouds.9 mph93%30.07 "HgN/A
1:20 AM37 °FPassing clouds.9 mph93%30.07 "HgN/A
12:50 AM39 °FPassing clouds.10 mph87%30.07 "HgN/A
12:20 AM39 °FPassing clouds.10 mph87%30.07 "HgN/A
11:50 PM
Jan 26
37 °FPassing clouds.12 mph93%30.07 "HgN/A
11:20 PM39 °FPassing clouds.13 mph87%30.07 "HgN/A
10:50 PM39 °FPassing clouds.10 mph93%30.04 "HgN/A
10:20 PM39 °FPassing clouds.10 mph93%30.04 "HgN/A
9:50 PM39 °FPassing clouds.10 mph93%30.04 "HgN/A
9:20 PM39 °FPassing clouds.8 mph87%30.04 "HgN/A
8:50 PM41 °FPassing clouds.12 mph87%30.04 "HgN/A
8:20 PM41 °FPassing clouds.10 mph87%30.01 "HgN/A
7:50 PM41 °FPassing clouds.10 mph93%30.01 "HgN/A
7:20 PM41 °FPassing clouds.10 mph93%30.01 "HgN/A
6:50 PM43 °FPassing clouds.12 mph93%30.01 "HgN/A
6:20 PM43 °FPartly cloudy.8 mph100%29.98 "HgN/A
5:50 PM43 °FPartly cloudy.10 mph100%29.98 "HgN/A
5:20 PM41 °FLight rain. Passing clouds.10 mph100%29.98 "Hg6 mi
4:50 PM41 °FDrizzle. Fog.10 mph100%29.98 "Hg3 mi
4:20 PM41 °FDrizzle. Partly sunny.9 mph100%29.98 "Hg4 mi
3:50 PM41 °FDrizzle. Fog.9 mph100%29.98 "Hg2 mi
3:20 PM39 °FDrizzle. Low clouds.10 mph100%29.98 "Hg4 mi
2:50 PM39 °FDrizzle. Fog.8 mph100%29.98 "Hg3 mi
2:20 PM39 °FDrizzle. Fog.9 mph100%30.01 "Hg2 mi
1:50 PM39 °FFog.9 mph100%30.01 "Hg3 mi
1:20 PM39 °FFog.7 mph100%30.04 "Hg3 mi
12:50 PM39 °FDrizzle. Fog.8 mph100%30.04 "Hg1 mi
12:20 PM39 °FDrizzle. Fog.9 mph100%30.04 "Hg2 mi
11:50 AM39 °FDrizzle. Fog.9 mph100%30.07 "Hg3 mi
11:20 AM37 °FDrizzle. Fog.10 mph100%30.07 "Hg3 mi
10:50 AM37 °FDrizzle. Fog.9 mph100%30.09 "Hg1 mi
10:20 AM37 °FDrizzle. Fog.8 mph100%30.09 "Hg1 mi
9:50 AM37 °FDrizzle. Fog.8 mph100%30.12 "Hg1 mi
9:20 AM37 °FDrizzle. Fog.8 mph100%30.12 "Hg1 mi
Weather by CustomWeather, © 2014

See weather overviewHow to use our weather pages